Location: Slidell
(30.2789°N, 89.7378°W)
Time: 17:15:00
(UTC-05:00)

Cosmos 2360 Rocket - Visible Passes

Search period start: 27 April 2015 00:00
Search period end: 07 May 2015 00:00
Orbit: 833 x 847 km, 71.0° (Epoch: 26 April)

Date Brightness Start Highest point End Pass type
(mag) Time Alt. Az. Time Alt. Az. Time Alt. Az.
27 Apr 2.7 03:31:34 55° NE 03:31:34 55° NE 03:36:05 10° NNE visible
27 Apr 4.1 05:13:20 12° WNW 05:15:07 13° NW 05:17:26 10° NNW visible
28 Apr 3.1 03:16:30 44° NE 03:16:30 44° NE 03:20:26 10° NNE visible
28 Apr 4.0 04:58:16 13° WNW 04:59:26 14° NW 05:02:07 10° NNW visible
29 Apr 3.5 03:01:23 36° NE 03:01:23 36° NE 03:04:47 10° NNE visible
29 Apr 4.0 04:43:10 15° WNW 04:43:45 15° WNW 04:46:45 10° NNW visible
30 Apr 3.8 02:46:14 30° NE 02:46:14 30° NE 02:49:08 10° NNE visible
30 Apr 4.0 04:28:00 16° WNW 04:28:04 16° WNW 04:31:21 10° NNW visible
01 May 4.1 02:31:02 25° NE 02:31:02 25° NE 02:33:28 10° NNE visible
01 May 4.0 04:12:48 17° NW 04:12:48 17° NW 04:15:54 10° NNW visible
02 May 4.3 02:15:48 22° NE 02:15:48 22° NE 02:17:48 10° NNE visible
02 May 4.0 03:57:34 18° NW 03:57:34 18° NW 04:00:28 10° NNW visible
03 May 4.5 02:00:32 19° NE 02:00:32 19° NE 02:02:07 10° NE visible
03 May 4.0 03:42:18 18° NW 03:42:18 18° NW 03:45:00 10° NNW visible
04 May 4.6 01:45:14 16° NE 01:45:14 16° NE 01:46:27 10° NE visible
04 May 4.1 03:27:00 19° NW 03:27:00 19° NW 03:29:31 10° NNW visible
05 May 4.8 01:29:54 14° NE 01:29:54 14° NE 01:30:45 10° NE visible
05 May 4.2 03:11:40 19° NNW 03:11:40 19° NNW 03:14:01 10° N visible
06 May 4.9 01:14:32 12° NE 01:14:32 12° NE 01:15:04 10° NE visible
06 May 4.2 02:56:18 19° NNW 02:56:18 19° NNW 02:58:31 10° N visible
